Pasco, WA

8:14 PM PDT on April 27, 2017 (GMT -0700)
Tri-Cities

Weather History for KPSC - April, 2014

Change the Weather History Date:

Thursday, April 24, 2014

  Actual Average Record
Temperature  
Mean Temperature 59 °F 54 °F  
Max Temperature 68 °F 70 °F 83 °F (1999)
Min Temperature 50 °F 39 °F 26 °F (2002)
Degree Days  
Heating Degree Days 6 11  
Month to date heating degree days 252 304  
Since 1 July heating degree days 5040 4765  
Cooling Degree Days 0 0  
Month to date cooling degree days 0 0  
Year to date cooling degree days 0 0  
Growing Degree Days 10 (Base 50)    
Moisture  
Dew Point 41 °F    
Average Humidity 58    
Maximum Humidity 89    
Minimum Humidity 26    
Precipitation  
Precipitation 0.07 in 0.02 in 0.27 in (1974)
Month to date precipitation 0.35 0.54  
Year to date precipitation 2.09 3.41  
Snow  
Snow 0.00 in - - ()
Snow Depth 0.00 in    
Sea Level Pressure  
Sea Level Pressure 29.79 in    
Wind  
Wind Speed 13 mph (SW)    
Max Wind Speed 28 mph    
Max Gust Speed 35 mph    
Visibility 10 miles    
Events Rain    
T = Trace of Precipitation, MM = Missing Value Source: NWS Daily Summary

Daily Weather History Graph

Daily Weather History Graph

Search for Another Location

Airport or City:

Trip Planner

Search our weather history database for the weather conditions in past years. The results will help you decide how hot, cold, wet, or windy it might be!

Date:

Astronomy

Apr. 24, 2014 Rise Set
Actual Time 5:53 AM PDT 7:56 PM PDT
Civil Twilight 5:21 AM PDT 8:28 PM PDT
Nautical Twilight 4:41 AM PDT 9:08 PM PDT
Astronomical Twilight 3:57 AM PDT 9:53 PM PDT
Moon 3:25 AM PDT (4/24) 3:01 PM PDT (4/24)
Length of Visible Light 15h 07m
Length of Day
14h 02m
Waning Crescent, 23% of the Moon is Illuminated
Apr 24
Waning Crescent
Apr 28
New
May 6
First Quarter
May 14
Full
May 21
Last Quarter

Hourly Weather History & Observations

Time (PDT) Temp. Dew Point Humidity Pressure Visibility Wind Dir Wind Speed Gust Speed Precip Events Conditions
12:53 AM 52.0 °F 48.0 °F 86% 29.78 in 10.0 mi ESE 13.8 mph - N/A   Overcast
1:53 AM 51.1 °F 48.0 °F 89% 29.76 in 10.0 mi ESE 11.5 mph - 0.05 in Rain Rain
2:53 AM 51.1 °F 48.0 °F 89% 29.75 in 10.0 mi ESE 5.8 mph - 0.02 in   Overcast
3:53 AM 51.1 °F 48.0 °F 89% 29.74 in 10.0 mi ESE 9.2 mph - N/A   Overcast
4:53 AM 53.1 °F 46.9 °F 80% 29.75 in 10.0 mi Calm Calm - 0.00 in Rain Light Rain
5:53 AM 53.1 °F 46.9 °F 80% 29.75 in 10.0 mi SSW 12.7 mph - 0.00 in Rain Light Rain
6:53 AM 54.0 °F 46.0 °F 75% 29.76 in 10.0 mi SSW 10.4 mph - 0.00 in   Overcast
7:53 AM 54.0 °F 46.9 °F 77% 29.76 in 10.0 mi SSE 4.6 mph - N/A   Mostly Cloudy
8:53 AM 57.0 °F 46.0 °F 67% 29.77 in 10.0 mi SSW 13.8 mph 23.0 mph N/A   Scattered Clouds
9:53 AM 59.0 °F 45.0 °F 60% 29.79 in 10.0 mi SW 20.7 mph 32.2 mph N/A   Mostly Cloudy
10:53 AM 60.1 °F 46.0 °F 60% 29.79 in 10.0 mi WSW 20.7 mph 25.3 mph N/A   Mostly Cloudy
11:53 AM 62.1 °F 45.0 °F 53% 29.80 in 10.0 mi West 18.4 mph 26.5 mph N/A   Scattered Clouds
12:53 PM 62.1 °F 43.0 °F 50% 29.79 in 10.0 mi WSW 18.4 mph - N/A   Clear
1:53 PM 66.9 °F 41.0 °F 39% 29.80 in 10.0 mi WSW 19.6 mph - N/A   Clear
2:53 PM 66.9 °F 39.0 °F 36% 29.79 in 10.0 mi SW 25.3 mph 29.9 mph N/A   Partly Cloudy
3:53 PM 68.0 °F 37.0 °F 32% 29.78 in 10.0 mi SW 24.2 mph 34.5 mph N/A   Clear
4:53 PM 68.0 °F 32.0 °F 26% 29.79 in 10.0 mi WSW 21.9 mph 32.2 mph N/A   Clear
5:53 PM 64.9 °F 33.1 °F 31% 29.79 in 10.0 mi WSW 19.6 mph - N/A   Clear
6:53 PM 63.0 °F 34.0 °F 34% 29.79 in 10.0 mi SW 17.3 mph - N/A   Clear
7:53 PM 59.0 °F 35.1 °F 41% 29.80 in 10.0 mi WSW 17.3 mph 25.3 mph N/A   Clear
8:53 PM 55.9 °F 35.1 °F 45% 29.81 in 10.0 mi West 15.0 mph - N/A   Clear
9:53 PM 54.0 °F 34.0 °F 47% 29.83 in 10.0 mi SW 13.8 mph - N/A   Clear
10:53 PM 54.0 °F 33.1 °F 45% 29.84 in 10.0 mi WSW 15.0 mph - N/A   Clear
11:53 PM 52.0 °F 35.1 °F 53% 29.85 in 10.0 mi WSW 3.5 mph - N/A   Clear